Regional Weather Roundup
Issued by NWS

Home | Current Version | Previous Version | Text Only | Print | Product List | Glossary Off
Versions: 1 2 3 4 5 6 7 8 9 10 11 12 13 14 15 16 17 18 19 20 21 22 23 24 25 26 27 28 29 30 31 32 33 34 35 36 37 38 39 40 41 42 43 44 45 46 47 48 49 50

000
ASUS43 KMKX 272011
RWRWI

WISCONSIN REGIONAL WEATHER ROUNDUP
NATIONAL WEATHER SERVICE MILWAUKEE/SULLIVAN WI
300 PM CDT SUN JUL 27 2014

NOTE: "FAIR" INDICATES FEW OR NO CLOUDS BELOW 12,000 FEET WITH NO
SIGNIFICANT WEATHER AND/OR OBSTRUCTIONS TO VISIBILITY.

WIZ001-002-006>008-014>016-023>028-272100-
NORTHWEST WISCONSIN

CITY           SKY/WX    TMP DP  RH WIND       PRES   REMARKS
SUPERIOR ARPT  CLOUDY    59  54  84 NE7       30.00R
ASHLAND        CLOUDY    59  53  80 NE14G20   29.98R
HAYWARD        CLOUDY    60  56  86 NE16G23   29.97R
SIREN          PTSUNNY   69  58  68 N14       29.95R
RICE LAKE      MOSUNNY   73  58  60 N13G21    29.92R
LADYSMITH      CLOUDY    68  58  71 NW18G24   29.92R
EAU CLAIRE     MOSUNNY   76  59  55 N13G23    29.86R
MENOMONIE      PTCLDY    76  57  52 NW17      29.88R
NEW RICHMOND   PTSUNNY   73  58  59 N13G21    29.93R
OSCEOLA          N/A    N/A N/A N/A N8        29.96R
$$

WIZ003>005-009-010-017-018-272100-
NORTH CENTRAL WISCONSIN

CITY           SKY/WX    TMP DP  RH WIND       PRES   REMARKS
WOODRUFF       PTSUNNY   68  61  77 N16G23    29.88R
RHINELANDER    PTSUNNY   65  58  78 NE10G20   29.85R
EAGLE RIVER    CLOUDY    62  59  90 N15G21    29.86R
LAND O LAKES   CLOUDY    59  56  91 N17G23    29.90R
PHILLIPS       CLOUDY    65  58  79 N15       29.88R
TOMAHAWK       PTSUNNY   67  58  71 N10G16    29.85R
MEDFORD        MOSUNNY   69  58  67 N17G26    29.85R
MERRILL        PTSUNNY   68  60  75 NE12      29.83R
$$

WIZ029-030-035-036-043>047-272100-
CENTRAL WISCONSIN

CITY           SKY/WX    TMP DP  RH WIND       PRES   REMARKS
WAUSAU         CLOUDY    67  63  87 N9G17     29.80S
MOSINEE        LGT RAIN  72  55  56 N14G22    29.82R
MARSHFIELD     MOSUNNY   75  59  57 NW21G28   29.82R
STEVENS POINT  SUNNY     73  55  53 N16       29.79S
WAUPACA        MOSUNNY   76  58  53 N12G17    29.76R
WAUTOMA        PTSUNNY   75  59  57 NW14G21   29.77R
WISC RAPIDS    MOSUNNY   75  56  51 MISG      29.80R
CAMP DOUGLAS   LGT RAIN  70  63  78 NW16G30   29.82R
$$

WIZ011>013-019>022-031-037>040-048>050-272100-
NORTHEAST WISCONSIN

CITY           SKY/WX    TMP DP  RH WIND       PRES   REMARKS
ANTIGO         CLOUDY    64  59  83 N14G23    29.82R
STURGEON BAY   CLOUDY    63  57  82 N14       29.73R
GREEN BAY      LGT RAIN  73  61  65 N12       29.73R
MANITOWOC      PTSUNNY   73  57  57 N18G24    29.70R
APPLETON       PTSUNNY   70  61  73 NW12G18   29.76R
CLINTONVILLE   PTSUNNY   70  55  60 NW22G32   29.75R
OSHKOSH        MOSUNNY   76  59  55 NW18G30   29.73R
$$

WIZ032>034-041-042-053>061-272100-
SOUTHWEST WISCONSIN

CITY           SKY/WX    TMP DP  RH WIND       PRES   REMARKS
LA CROSSE      MOSUNNY   79  59  50 NW20      29.84R HX  80
SPARTA         CLOUDY    73  57  56 NW14      29.84R
VIROQUA        MOCLDY    73  58  59 NW20G31   29.86R
BOSCOBEL       MOSUNNY   79  59  50 NW14G24   29.84R HX  80
PRAIRIE DU CHI CLOUDY    75  53  46 NW17G32   29.85R
PLATTEVILLE    PTSUNNY   75  56  51 W17G25    29.85S
$$

WIZ056-057-062-063-064-067-068-272100-
SOUTH CENTRAL WISCONSIN

CITY           SKY/WX    TMP DP  RH WIND       PRES   REMARKS
BARABOO/DELLS  PTSUNNY   77  55  46 W15G23    29.80R
LONE ROCK      MOSUNNY   80  59  48 W21G29    29.81S HX  81
WATERTOWN      PTSUNNY   74  57  55 NW17G25   29.76S
MADISON        PTSUNNY   72  60  66 NW14G23   29.79R
MIDDLETON      CLOUDY    68  56  66 NW17G31   29.80R
MONROE         PTSUNNY   75  55  50 W16G29    29.80S
JANESVILLE     PTSUNNY   77  52  41 NW23G30   29.76R
$$

WIZ051-052-058>065-066-070>072-272100-
SOUTHEAST WISCONSIN

CITY           SKY/WX    TMP DP  RH WIND       PRES   REMARKS
MILWAUKEE      PTSUNNY   69  58  67 NW12      29.73R
WAUKESHA       LGT RAIN  64  59  82 NW16G22   29.76R
MILWAUKEE/TIMM CLOUDY    66  59  77 NW10      29.74R
RACINE         PTSUNNY   76  58  53 N17G35    29.73R
BURLINGTON     MOSUNNY   76  54  46 NW16G29   29.73R
KENOSHA        MOSUNNY   81  58  45 W20G30    29.71R HX  81
FOND DU LAC    PTSUNNY   75  57  53 NW20G26   29.73R
SHEBOYGAN      TSTM      72  59  63 NW14      29.71S
WEST BEND      MOSUNNY   72  59  64 W15G23    29.72F
JUNEAU         MOSUNNY   72  56  57 W12G21    29.76S
$$

LSZ147-162-272100-
LAKE SUPERIOR

STATION/POSITION TIME  TEMP    WIND        PRES    WAVE
                       AIR SEA DIR/SP/G            HT/PER
                 (UTC) (F)     (DEG/KT/KT) (MB)    (FT/S)
W MID LAKE BUOY  1950   48 42   10/  8/  8 1014.1R   2/ 4
PORT WING        1913   63      50/ 16/ 25 1014.9R
SAXON HARBOR     1914           40/ 22/ 25 1013.5R
$$

LMZ867-665-643>646-272100-
LAKE MICHIGAN

STATION/POSITION TIME  TEMP    WIND        PRES    WAVE
                       AIR SEA DIR/SP/G            HT/PER
                 (UTC) (F)     (DEG/KT/KT) (MB)    (FT/S)
N MID LAKE BUOY  1950   60 56  360/ 12/ 14 1006.0R   2/ 3
NORTHPORT PIER   1900   65      10/ 12/ 18 1006.4R
KEWAUNEE LAKESHO 1900   68     330/  8/ 14 1006.5R
SHEBOYGAN LAKESH 2000   75     290/  8/  9 1005.4F
PORT WASHINGTON  1900   65     280/  7/ 13 1006.8
ATWATER BUOY     2000   60     280/  8     1007.5R
MILWAUKEE LAKESH 1900   76     300/ 19/ 29   N/A
S MID LAKE BUOY  1950   68 66  310/  6/  6 1005.1S   0
KENOSHA   LAKESH 2000   78     300/ 24/ 28 1005.1R
$$

TC  - TEMPERATURE IN CELSIUS
VSB - VISIBILITY IN STATUTE MILES
WCI - WIND CHILL INDEX
HX  - HEAT INDEX



USA.gov is the U.S. government's official web portal to all federal, state and local government web resources and services.